Regional Weather Roundup
Issued by NWS

Home | Current Version | Previous Version | Graphics & Text | Print | Product List | Glossary On
Versions: 1 2 3 4 5 6 7 8 9 10 11 12 13 14 15 16 17 18 19 20 21 22 23 24 25 26 27 28 29 30 31 32 33 34 35 36 37 38 39 40 41 42 43 44 45 46 47 48 49 50
000
ASUS43 KIND 081309
RWRIN

WEATHER ROUNDUP FOR INDIANA
NATIONAL WEATHER SERVICE INDIANAPOLIS IN
800 AM EST MON FEB 08 2016

NOTE: "FAIR" INDICATES FEW OR NO CLOUDS BELOW 12,000 FEET WITH NO
SIGNIFICANT WEATHER AND/OR OBSTRUCTIONS TO VISIBILITY.

* - STATION DOES NOT REPORT WEATHER SUCH AS PRECIPITATION OR FOG.

+ - STATION NOT QUALITY CONTROLLED BY THE NATIONAL WEATHER SERVICE.
    USE DATA WITH CAUTION...ESPECIALLY DEWPOINT AND RELATIVE
    HUMIDITY OBSERVATIONS.

INZ001>003-010>013-019-020-081400-
NORTHWEST INDIANA

CITY           SKY/WX    TMP DP  RH WIND       PRES   REMARKS
GARY /AIRPORT/ CLOUDY    32  28  86 SW6       29.64S WCI  26
LA PORTE +     CLOUDY    30  30 100 SW6       29.64S WCI  24
MICHIGAN CITY+ CLOUDY    30  28  93 SW7       29.64S WCI  23
MONTICELLO +   PTCLDY    30  26  83 W3        29.66R
RENSSELAER +   CLOUDY    32  28  86 SW6       29.66S WCI  26
VALPARAISO     CLOUDY    30  27  88 SW7       29.64S WCI  23

$$

LMZ046-743>745-081400-
SOUTHERN LAKE MICHIGAN

STATION/POSITION TIME  TEMP    WIND        PRES    WAVE
                       AIR SEA DIR/SP/G            HT
                 (UTC) (F)     (DEG/KT/KT) (MB)    (FT)
BURNS HARBOR     1200   31     210/ 10/ 12 1004.4S
MICHIGAN CITY    1200   30     180/ 10/ 13   N/A

$$

INZ004-005-014>016-021>024-081400-
NORTH CENTRAL INDIANA

CITY           SKY/WX    TMP DP  RH WIND       PRES   REMARKS
ELKHART          N/A     27  25  93 CALM      29.63S
GOSHEN         MOCLDY    28  25  88 S5        29.63S WCI  23
LOGANSPORT +   CLOUDY    32  27  80 SW5       29.66S WCI  27
PERU/GRISSOM   MOCLDY    32  29  91 SE1       29.64S
ROCHESTER +    CLOUDY    34  28  80 SW5       29.65S WCI  30
SOUTH BEND     CLOUDY    25  23  92 SW5       29.63S WCI  19
WARSAW +       PTCLDY    28  27  93 CALM      29.64S

$$

INZ006>009-017-018-025>027-081400-
NORTHEAST INDIANA

CITY           SKY/WX    TMP DP  RH WIND       PRES   REMARKS
ANGOLA *+      CLOUDY    27  27 100 CALM      29.62S
AUBURN +       CLOUDY    32  28  86 SW5       29.64F WCI  27
FORT WAYNE     MOCLDY    32  30  92 W7        29.65S WCI  26
HUNTINGTON +   CLOUDY    30  26  88 SW3       29.65S

$$

INZ028-029-035-036-043>045-051>053-081400-
WEST CENTRAL INDIANA

CITY           SKY/WX    TMP DP  RH WIND       PRES   REMARKS
GREENCASTLE +  CLOUDY    32  28  86 W3        29.68F
LAFAYETTE      PTCLDY    29  26  89 SW3       29.67S
TERRE HAUTE    FLURRIES  33  31  92 W8        29.70F WCI  26

$$

INZ030>032-037>040-046>048-054>057-064-065-081400-
CENTRAL INDIANA

CITY           SKY/WX    TMP DP  RH WIND       PRES   REMARKS
COLUMBUS       CLOUDY    32  32 100 CALM      29.69F
FISHERS *+     CLOUDY    32  32 100 CALM      29.67S
FRANKFORT +    MOCLDY    31  31 100 SW7       29.68S WCI  24
GREENWOOD *+   CLOUDY    34  34 100 CALM      29.68S
INDIANAPOLIS   CLOUDY    33  31  92 W8        29.67S WCI  26
-EAGLE CREEK   CLOUDY    33  32  96 SW3       29.67S
KOKOMO *+        N/A     34  27  75 S3        29.66S
MARION +       LGT SNOW  32  26  77 W7        29.66S WCI  26
MT COMFORT *+  CLOUDY    32  32 100 CALM      29.67F
SHELBYVILLE    CLOUDY    34  31  88 W5        29.67S WCI  30
ZIONSVILLE +   CLOUDY    32  30  93 W8        29.67S WCI  25

$$

INZ033-034-041-042-049-050-058-059-081400-
EAST CENTRAL INDIANA

CITY           SKY/WX    TMP DP  RH WIND       PRES   REMARKS
MUNCIE         CLOUDY    35  30  82 W10       29.65S WCI  27

$$

INZ060-061-067>069-081>083-085>088-081400-
SOUTHWEST INDIANA

CITY           SKY/WX    TMP DP  RH WIND       PRES   REMARKS
EVANSVILLE     PTCLDY    34  31  88 W6        29.76S WCI  29
HUNTINGBURG *+ CLOUDY    34  30  86 W5        29.74S WCI  30
WASHINGTON +   CLOUDY    35  33  95 W7        29.72S WCI  29

$$

INZ062-063-066-070>080-084-089>092-081400-
SOUTH CENTRAL AND SOUTHEAST INDIANA

CITY           SKY/WX    TMP DP  RH WIND       PRES   REMARKS
BEDFORD +      LGT SNOW  34  34 100 SW5       29.70S WCI  30
BLOOMINGTON    LGT SNOW  34  32  92 W8        29.68S FOG     WCI  27
MADISON *+     CLOUDY    34  32  93 CALM      29.70F
NORTH VERNON + CLOUDY    36 N/A N/A CALM      29.69F
SEYMOUR +      CLOUDY    36  34  93 CALM      29.69F

$$




USA.gov is the U.S. government's official web portal to all federal, state and local government web resources and services.